Stündliche Wetter Juegangzhen

Heute, 3 März, Mittwoch

Zeit Temperatur Niederschläge Wind Luftdruck Luftfeuchtigkeit
00:00 +4°C° 0 mm 1 m/S 772 mmHg 75%
01:00 +4°C° 0 mm 1 m/S 771 mmHg 75%
02:00 +4°C° 0 mm 1 m/S 771 mmHg 76%
03:00 +4°C° 0 mm 1 m/S 771 mmHg 77%
04:00 +4°C° 0 mm 1 m/S 771 mmHg 77%
05:00 +3°C° 0 mm 2 m/S 771 mmHg 77%
06:00 +4°C° 0 mm 2 m/S 771 mmHg 75%
07:00 +4°C° 0 mm 3 m/S 770 mmHg 72%
08:00 +5°C° 0 mm 4 m/S 770 mmHg 70%
09:00 +6°C° 0 mm 4 m/S 770 mmHg 66%
10:00 +8°C° 0 mm 5 m/S 770 mmHg 62%
11:00 +9°C° 0 mm 5 m/S 770 mmHg 58%
12:00 +9°C° 0 mm 5 m/S 769 mmHg 58%
13:00 +10°C° 0 mm 6 m/S 768 mmHg 58%
14:00 +10°C° 0 mm 5 m/S 767 mmHg 57%
15:00 +9°C° 0 mm 6 m/S 767 mmHg 60%
16:00 +9°C° 0 mm 6 m/S 767 mmHg 63%
17:00 +8°C° 0 mm 6 m/S 767 mmHg 66%
18:00 +8°C° 0 mm 6 m/S 767 mmHg 69%
19:00 +8°C° 0 mm 6 m/S 767 mmHg 72%
20:00 +7°C° 0 mm 6 m/S 767 mmHg 76%
21:00 +7°C° 0.1 mm 5 m/S 767 mmHg 79%
22:00 +7°C° 0.1 mm 4 m/S 767 mmHg 82%
23:00 +7°C° 0.1 mm 4 m/S 767 mmHg 86%

Morgen, 4 März, Donnerstag

Zeit Temperatur Niederschläge Wind Luftdruck Luftfeuchtigkeit
00:00 +8°C° 0.8 mm 3 m/S 766 mmHg 89%
01:00 +8°C° 0.8 mm 2 m/S 766 mmHg 93%
02:00 +8°C° 0.8 mm 2 m/S 765 mmHg 97%
03:00 +8°C° 1.3 mm 2 m/S 765 mmHg 97%
04:00 +8°C° 1.3 mm 2 m/S 765 mmHg 98%
05:00 +9°C° 1.3 mm 1 m/S 765 mmHg 98%
06:00 +8°C° 0.7 mm 2 m/S 765 mmHg 97%
07:00 +8°C° 0.7 mm 2 m/S 765 mmHg 96%
08:00 +8°C° 0.7 mm 2 m/S 765 mmHg 96%
09:00 +9°C° 0.1 mm 2 m/S 765 mmHg 88%
10:00 +11°C° 0.1 mm 3 m/S 765 mmHg 81%
11:00 +12°C° 0.1 mm 3 m/S 765 mmHg 74%
12:00 +13°C° 0 mm 3 m/S 765 mmHg 70%
13:00 +14°C° 0 mm 4 m/S 764 mmHg 66%
14:00 +14°C° 0 mm 4 m/S 764 mmHg 62%
15:00 +13°C° 0 mm 4 m/S 764 mmHg 67%
16:00 +12°C° 0 mm 3 m/S 764 mmHg 72%
17:00 +11°C° 0 mm 3 m/S 764 mmHg 78%
18:00 +10°C° 0 mm 3 m/S 764 mmHg 81%
19:00 +9°C° 0 mm 2 m/S 765 mmHg 85%
20:00 +8°C° 0 mm 2 m/S 765 mmHg 89%
21:00 +8°C° 0 mm 2 m/S 765 mmHg 89%
22:00 +8°C° 0 mm 2 m/S 765 mmHg 90%
23:00 +7°C° 0 mm 2 m/S 766 mmHg 90%

übermorgen, 5 März, Freitag

Zeit Temperatur Niederschläge Wind Luftdruck Luftfeuchtigkeit
00:00 +7°C° 0 mm 2 m/S 765 mmHg 91%
01:00 +7°C° 0 mm 2 m/S 765 mmHg 91%
02:00 +8°C° 0 mm 1 m/S 765 mmHg 92%
03:00 +8°C° 0 mm 1 m/S 765 mmHg 92%
04:00 +8°C° 0 mm 1 m/S 765 mmHg 93%
05:00 +7°C° 0 mm 1 m/S 765 mmHg 93%
06:00 +7°C° 0 mm 2 m/S 765 mmHg 92%
07:00 +8°C° 0 mm 3 m/S 765 mmHg 91%
08:00 +8°C° 0 mm 4 m/S 765 mmHg 90%
09:00 +10°C° 0 mm 4 m/S 765 mmHg 84%
10:00 +12°C° 0 mm 4 m/S 765 mmHg 79%
11:00 +13°C° 0 mm 4 m/S 765 mmHg 73%
12:00 +13°C° 0 mm 4 m/S 765 mmHg 74%
13:00 +12°C° 0 mm 4 m/S 765 mmHg 75%
14:00 +12°C° 0 mm 5 m/S 764 mmHg 76%
15:00 +11°C° 0 mm 4 m/S 764 mmHg 79%
16:00 +11°C° 0 mm 4 m/S 764 mmHg 82%
17:00 +10°C° 0 mm 4 m/S 764 mmHg 84%
18:00 +10°C° 0 mm 3 m/S 765 mmHg 85%
19:00 +9°C° 0 mm 3 m/S 765 mmHg 86%
20:00 +9°C° 0 mm 3 m/S 766 mmHg 86%
21:00 +9°C° 0 mm 3 m/S 766 mmHg 87%
22:00 +9°C° 0 mm 3 m/S 767 mmHg 88%
23:00 +9°C° 0 mm 3 m/S 767 mmHg 89%

6 März, Samstag

Zeit Temperatur Niederschläge Wind Luftdruck Luftfeuchtigkeit
00:00 +8°C° 0 mm 4 m/S 767 mmHg 89%
01:00 +8°C° 0 mm 4 m/S 768 mmHg 88%
02:00 +7°C° 0 mm 4 m/S 768 mmHg 88%
03:00 +8°C° 0 mm 5 m/S 768 mmHg 88%
04:00 +8°C° 0 mm 5 m/S 768 mmHg 87%
05:00 +8°C° 0 mm 6 m/S 768 mmHg 86%
06:00 +8°C° 0 mm 6 m/S 769 mmHg 86%
07:00 +8°C° 0 mm 7 m/S 769 mmHg 87%
08:00 +7°C° 0 mm 8 m/S 770 mmHg 87%
09:00 +7°C° 0 mm 8 m/S 770 mmHg 84%
10:00 +7°C° 0 mm 8 m/S 770 mmHg 82%
11:00 +7°C° 0 mm 8 m/S 770 mmHg 80%
12:00 +7°C° 0 mm 8 m/S 770 mmHg 80%
13:00 +7°C° 0 mm 8 m/S 769 mmHg 80%
14:00 +6°C° 0 mm 8 m/S 769 mmHg 80%
15:00 +6°C° 0 mm 8 m/S 769 mmHg 80%
16:00 +5°C° 0 mm 8 m/S 769 mmHg 79%
17:00 +5°C° 0 mm 8 m/S 769 mmHg 79%
18:00 +5°C° 0 mm 8 m/S 770 mmHg 80%
19:00 +5°C° 0 mm 7 m/S 770 mmHg 81%
20:00 +4°C° 0 mm 7 m/S 771 mmHg 81%
21:00 +4°C° 0 mm 6 m/S 771 mmHg 82%
22:00 +4°C° 0 mm 6 m/S 771 mmHg 82%
23:00 +6°C° 0 mm 5 m/S 771 mmHg 82%

7 März, Sonntag

Zeit Temperatur Niederschläge Wind Luftdruck Luftfeuchtigkeit
00:00 +5°C° 0 mm 5 m/S 770 mmHg 83%
01:00 +5°C° 0 mm 5 m/S 770 mmHg 84%
02:00 +5°C° 0 mm 5 m/S 770 mmHg 85%
03:00 +4°C° 0.3 mm 6 m/S 770 mmHg 88%
04:00 +4°C° 0.3 mm 6 m/S 770 mmHg 90%
05:00 +4°C° 0.3 mm 7 m/S 770 mmHg 92%
06:00 +5°C° 0.3 mm 7 m/S 770 mmHg 92%
07:00 +5°C° 0.3 mm 6 m/S 770 mmHg 93%
08:00 +5°C° 0.3 mm 6 m/S 771 mmHg 93%
09:00 +5°C° 0.2 mm 6 m/S 771 mmHg 94%
10:00 +7°C° 0.2 mm 5 m/S 771 mmHg 94%
11:00 +7°C° 0.2 mm 5 m/S 771 mmHg 94%
12:00 +8°C° 0.1 mm 4 m/S 771 mmHg 94%
13:00 +9°C° 0.1 mm 3 m/S 770 mmHg 93%
14:00 +9°C° 0.1 mm 3 m/S 770 mmHg 93%
15:00 +10°C° 0 mm 3 m/S 770 mmHg 91%
16:00 +10°C° 0 mm 3 m/S 770 mmHg 90%
17:00 +10°C° 0 mm 3 m/S 770 mmHg 88%
18:00 +9°C° 0 mm 3 m/S 770 mmHg 90%
19:00 +8°C° 0 mm 3 m/S 770 mmHg 92%
20:00 +7°C° 0 mm 4 m/S 771 mmHg 95%
21:00 +7°C° 0 mm 3 m/S 771 mmHg 95%
22:00 +7°C° 0 mm 3 m/S 771 mmHg 95%
23:00 +7°C° 0 mm 3 m/S 771 mmHg 95%

8 März, Montag

Zeit Temperatur Niederschläge Wind Luftdruck Luftfeuchtigkeit
00:00 +7°C° 0 mm 3 m/S 771 mmHg 95%
01:00 +7°C° 0 mm 3 m/S 770 mmHg 95%
02:00 +7°C° 0 mm 3 m/S 770 mmHg 95%
03:00 +7°C° 0 mm 3 m/S 770 mmHg 95%
04:00 +7°C° 0 mm 2 m/S 770 mmHg 94%
05:00 +7°C° 0 mm 2 m/S 770 mmHg 94%
06:00 +8°C° 0 mm 2 m/S 770 mmHg 92%
07:00 +8°C° 0 mm 2 m/S 770 mmHg 89%
08:00 +9°C° 0 mm 3 m/S 770 mmHg 86%
09:00 +10°C° 0 mm 3 m/S 770 mmHg 82%
10:00 +11°C° 0 mm 3 m/S 770 mmHg 78%
11:00 +11°C° 0 mm 3 m/S 770 mmHg 74%
12:00 +12°C° 0 mm 4 m/S 770 mmHg 73%
13:00 +12°C° 0 mm 4 m/S 769 mmHg 71%
14:00 +12°C° 0 mm 4 m/S 769 mmHg 70%
15:00 +11°C° 0 mm 4 m/S 768 mmHg 70%
16:00 +10°C° 0 mm 4 m/S 768 mmHg 71%
17:00 +8°C° 0 mm 4 m/S 768 mmHg 71%
18:00 +8°C° 0 mm 4 m/S 768 mmHg 76%
19:00 +8°C° 0 mm 3 m/S 769 mmHg 80%
20:00 +7°C° 0 mm 3 m/S 769 mmHg 84%
21:00 +7°C° 0 mm 3 m/S 769 mmHg 83%
22:00 +7°C° 0 mm 3 m/S 769 mmHg 82%
23:00 +8°C° 0 mm 3 m/S 768 mmHg 81%
Mehr zeigen

Wir brauchen deine Erlaubnis

Meteoprog und unser Service Anbieter werden persönliche Daten aufbewahren, so wie Cookies, Geräte Bezeichnung oder ähnliche Technologien von deinem Gerät und Prozess, so wie Persönliche Daten Inhalte und Werbungen, genauso wie social Media und den Verkehr zu analysieren.

  • Aufbewahrung und/oder Zugang zu deiner Geräte Informationen.

    Cookies, Geräte Bezeichnung oder andere Informationen, können aufbewahrt oder Zugang zu deinem Gerät erhalten, für den Grund, der oben angegeben wird.

  • Personalisierte Werbung und Inhalte, Messungen, Einblick in das Publikum und Produkt Entwicklung.

    Werbungen und Inhalte können personalisiert werden, basierend auf ein Profil. Mehr Daten können besser personalisierte Werbungen und Inhalte hinzufügen. Werbung und Inhalte können gezeigt und gemessen werden. Einblicke über das Publikum, welche die Werbung gesehen haben und den Inhalt, können abgeleitet werden. So wie Daten können genutzt werden, um es zu verbessern oder die Benutzer Erfahrung zu verbessern das System und die Software.

Wenn du “Ich stimme zu” klickst, erlaubst du uns, die Cookies zu benutzen die Geräte Bezeichnung, den Web oder ähnliche Technologien zu benutzen. Deine Settings, können in deinem Gerät bei deinem Browser geändert werden.

Für den bestimmten Zweck, berechtigten Interessen beruhen darauf, mehr als auf den Inhalt. Du kannst mehr darüber in unseren Privaten und Cookie Politik lesen.